CZ-6A DEB, 54925

Orbit data source: Space-Track

CZ-6A DEB, 54925 is space debris in SSO originally from a launch on Fri, 11 Nov 2022 UTC launched from the Taiyaun Space Center, China (TSC). Debris objects in space refer to the collection of defunct objects orbiting the Earth. Examples of debris include non-operational satellites, rocket bodies, and fragments generated from explosions, collisions, or faulty payload assembly.

Loading next visibility...
Identifier
54925, 2022-151RN
Orbit
SSO
Country
Flag of CNCN / PRC
Related business
Manufacturer
SAST
Mission
Spacecraft
Bus & Motor
Unknown
Mass
Unknown
Launch date (UTC)
2022-11-11 (4 years ago)
Launch vehicle
Unknown
Launch site
Taiyaun Space Center, China (TSC)
Object type
Payload
Rocket body
Debris
Shape & HBR
Unknown shape, 0.1 m
Radar Cross Section
Medium (>0.1 m² and <1 m²)

Expand to show TLE details & history
Last TLE update: 17 hours ago

TLE from 17 hours ago
0 CZ-6A DEB
1 54925U 22151RN  26236.44051659  .00000722  00000-0  40336-3 0  9999
2 54925  98.8391 241.0039 0042069 129.5857 230.9042 14.13523558194339
Epoch: 2026-08-24T10:34Z
TLE epoch observation values (Epoch: 2026-08-24T10:34:20.633Z)
Latitude
-0.00008°
Longitude
109.69576°
Altitude
869.49 km
Speed
7.408 km/s
True Right ascension
16h 04m 00s
True Declination
0° 00' 00"
Sunlit
Object was in daylight at epoch
Visualization orbit readout
Latitude
Unknown
Longitude
Unknown
Altitude
Unknown
Speed
Unknown
Apparent Right ascension
Unknown
Apparent Declination
Unknown
Sunlit
N/A
Visualization observer readout
Local Sidereal Time
18:25:45
Azimuth
Unknown
Elevation
Unknown
Doppler factor
Unknown
Orbital elements
Apogee altitude
874.898 km
Perigee altitude
814.128 km
Semi-major axis
7,222.65 km
Eccentricity
0.00421
Inclination
98.8391°
RAAN
241.0039°
Arg. of periapsis
129.5857°
True anomaly
230.5313°
Mean anomaly
230.9042°
Eccentric anomaly
230.71763°
Mean motion
3.53589 °/min
Orbital period
101.81 mins
BSTAR
0.00040336
Loading maneuver chart data...
Computing Atmospheric mass density...
Loading historical data...
Loading historical data...
Loading historical data...
Loading historical data...
Loading historical data...
Loading historical data...
Loading historical data...

Documentation

Showing up to 5 results
|